Springfield, MO

12:42 PM CST on February 07, 2016 (GMT -0600)
Springfield-Branson Regional

Weather History for KSGF - September, 2014

Change the Weather History Date:

Wednesday, September 24, 2014

  Actual Average Record
Temperature  
Mean Temperature 64 °F 65 °F  
Max Temperature 77 °F 77 °F 92 °F (1939)
Min Temperature 50 °F 54 °F 32 °F (1989)
Degree Days  
Heating Degree Days 1 3  
Month to date heating degree days 31 29  
Since 1 July heating degree days 31 31  
Cooling Degree Days 0 3  
Month to date cooling degree days 144 155  
Year to date cooling degree days 1390 1341  
Growing Degree Days 14 (Base 50)    
Moisture  
Dew Point 47 °F    
Average Humidity 59    
Maximum Humidity 86    
Minimum Humidity 31    
Precipitation  
Precipitation 0.00 in 0.15 in 5.03 in (1993)
Month to date precipitation 5.00 3.71  
Year to date precipitation 26.97 33.82  
Snow  
Snow 0.00 in - - ()
Month to date snowfall 0.0  
Since 1 July snowfall 0.0  
Since 1 September snowfall 0.0  
Snow Depth 0.00 in    
Sea Level Pressure  
Sea Level Pressure 30.20 in    
Wind  
Wind Speed 6 mph (SSE)    
Max Wind Speed 14 mph    
Max Gust Speed 17 mph    
Visibility 10 miles    
Events      
T = Trace of Precipitation, MM = Missing Value Source: NWS Daily Summary

Daily Weather History Graph

Daily Weather History Graph

Search for Another Location

Airport or City:

Trip Planner

Search our weather history database for the weather conditions in past years. The results will help you decide how hot, cold, wet, or windy it might be!

Date:

Astronomy

Sep. 24, 2014 Rise Set
Actual Time 7:03 AM CDT 7:07 PM CDT
Civil Twilight 6:37 AM CDT 7:33 PM CDT
Nautical Twilight 6:06 AM CDT 8:03 PM CDT
Astronomical Twilight 5:35 AM CDT 8:34 PM CDT
Moon 7:23 AM CDT (9/24) 7:19 PM CDT (9/24)
Length of Visible Light 12h 56m
Length of Day
12h 04m
New Moon, 0% of the Moon is Illuminated
Sep 24
New Moon
Oct 1
First Quarter
Oct 8
Full
Oct 15
Last Quarter
Oct 23
New

Hourly Weather History & Observations

Time (CDT) Temp. Dew Point Humidity Pressure Visibility Wind Dir Wind Speed Gust Speed Precip Events Conditions
12:52 AM 55.9 °F 46.9 °F 72% 30.20 in 10.0 mi SE 5.8 mph - N/A   Clear
1:52 AM 53.1 °F 46.0 °F 77% 30.20 in 10.0 mi SE 6.9 mph - N/A   Clear
2:52 AM 55.0 °F 46.9 °F 74% 30.20 in 10.0 mi SSE 4.6 mph - N/A   Clear
3:52 AM 52.0 °F 46.0 °F 80% 30.20 in 10.0 mi South 5.8 mph - N/A   Clear
4:52 AM 51.1 °F 46.0 °F 83% 30.19 in 10.0 mi SSE 6.9 mph - N/A   Clear
5:52 AM 51.1 °F 46.0 °F 83% 30.22 in 10.0 mi SSE 6.9 mph - N/A   Clear
6:52 AM 50.0 °F 46.0 °F 86% 30.22 in 10.0 mi SSE 6.9 mph - N/A   Clear
7:52 AM 54.0 °F 48.0 °F 80% 30.22 in 10.0 mi SSE 8.1 mph - N/A   Clear
8:52 AM 60.1 °F 48.9 °F 67% 30.22 in 10.0 mi SE 11.5 mph - N/A   Clear
9:52 AM 66.9 °F 50.0 °F 54% 30.23 in 10.0 mi South 11.5 mph - N/A   Clear
10:52 AM 69.1 °F 50.0 °F 51% 30.25 in 10.0 mi SSW 8.1 mph - N/A   Clear
11:52 AM 71.1 °F 46.9 °F 42% 30.25 in 10.0 mi SW 6.9 mph - N/A   Clear
12:52 PM 73.9 °F 45.0 °F 35% 30.23 in 10.0 mi South 6.9 mph - N/A   Clear
1:52 PM 75.0 °F 44.1 °F 33% 30.22 in 10.0 mi Calm Calm - N/A   Clear
2:52 PM 75.9 °F 43.0 °F 31% 30.19 in 10.0 mi East 5.8 mph - N/A   Clear
3:52 PM 77.0 °F 44.1 °F 31% 30.18 in 10.0 mi SE 5.8 mph - N/A   Clear
4:52 PM 75.9 °F 45.0 °F 33% 30.18 in 10.0 mi South 5.8 mph - N/A   Clear
5:52 PM 73.9 °F 46.9 °F 38% 30.17 in 10.0 mi SSE 9.2 mph - N/A   Clear
6:52 PM 68.0 °F 50.0 °F 52% 30.17 in 10.0 mi SSE 5.8 mph - N/A   Clear
7:52 PM 66.0 °F 50.0 °F 56% 30.18 in 10.0 mi Calm Calm - N/A   Clear
8:52 PM 60.1 °F 53.1 °F 78% 30.18 in 10.0 mi SSE 5.8 mph - N/A   Clear
9:52 PM 60.1 °F 51.1 °F 72% 30.19 in 10.0 mi SE 5.8 mph - N/A   Clear
10:52 PM 61.0 °F 50.0 °F 67% 30.19 in 10.0 mi SSE 4.6 mph - N/A   Clear
11:52 PM 57.9 °F 50.0 °F 75% 30.20 in 10.0 mi SSW 5.8 mph - N/A   Clear